MET'MAP v2.0
soon released !

Expected late october,
this new version will be
more efficient, smarter,
and hosted on a brand new
server x3 powerfull...
...and still free !


Not compatible ?
Try the mobile version !

LOG IN : | Subscribe | Disclaimer | Who is Orbifly ? |
ICAO code :

TAF - LFDB Montauban - 07 Jun 2020 12:27 UTC
Data Sources :     NOAA   


- Airport Elevation : 351 ft
- IATA code : XMW
- No reported NOTAMs.


LFDB - Montauban

Latest METAR recorded : 0000/00/00 L :07 TAF LELL 070800Z 0709/0809 VRB03KT 9999 SCT030 TX23/0713Z TN13/0803Z BECMG 0710/0712 12010KT PROB40 TEMPO 0709/0715 4000 SHRA TS SCT030CB BECMG 0720/0722 VRB04KT
NO TAF


MET'MAP, your aeronautical weather chart ! - Copyright ORBIFLY December 2007

Programming & Development : Alexandra Zaïnal
Co-Developer : Marc-Olivier Méhu
Technical & hardware support : Manuel Goepfert
Concept & Financing : Baudouin d'Aumeries